"Pseudo-MPEC" for A11ayl3

Created 2024 Sep 11 1:22:03 UT using Find_Orb

Click here for an explanation of pseudo-MPECs

 
 Astrometry: 
     A11ayl3* C2024 09 02.19759902 16 43.510+00 15 01.84   ~9327 12.45oVNEOCPW68
     A11ayl3  C2024 09 02.22980002 34 53.712+00 46 36.84   ~9327 12.67oVNEOCPW68
     A11ayl3  C2024 09 02.25706502 48 53.635+01 13 17.36   ~9327 12.94oVNEOCPW68
     A11ayl3  C2024 09 02.25886702 49 46.834+01 15 02.74   ~9327 12.94oVNEOCPW68
     A11ayl3  C2024 09 02.27333802 56 45.245+01 29 08.20   ~9327 12.93oVNEOCPW68
     A11ayl3  C2024 09 02.27559102 57 49.051+01 31 19.74   ~9327 12.96oVNEOCPW68
     A11ayl3  C2024 09 02.27919702 59 30.338+01 34 49.76   ~9327 12.98oVNEOCPW68
     A11ayl3  C2024 09 02.28550603 02 25.464+01 40 56.89   ~9327 13.03oVNEOCPW68
     A11ayl3  C2024 09 02.30795303 12 28.884+02 02 38.62   ~9327 13.01oVNEOCPW68
     A11ayl3  C2024 09 02.31110803 13 51.391+02 05 41.06   ~9327 13.13oVNEOCPW68
     A11ayl3  C2024 09 02.33082503 22 16.183+02 24 36.68   ~9327 13.28oVNEOCPW68

Station data:
(W68) ATLAS Chile, Rio Hurtado  (S30.471010 W70.764980)  Chile.  Observers L.
   Denneau, R. Siverd, J. Tonry, H. Weiland. Measurers L. Denneau, N.
   Erasmus, A. Fitzsimmons, A. Lawrence, J. Robinson, R. Siverd, J. Tonry, H.
   Weiland. 0.5-m reflector + CCD.

Orbital elements:  A11ayl3
   Perigee 2024 Sep 1.90183 +/- 0.00036 TT = 21:38:38 (JD 2460555.40183)
Epoch 2024 Sep  2.0 TT = JDT 2460555.5                           AutoNEOCP
M  30.93140998 +/- 0.10             (J2000 equator)
n 315.09208460 +/- 0.325            Peri.  192.81404 +/- 0.059
a 46164.8941 +/- 31.7               Node    52.91142 +/- 0.006
e   0.5246445 +/- 0.000412          Incl.    7.49900 +/- 0.0023
P1645.202m/1.143d          H 28.02  G  0.15   U 12.0
q 21944.7321 +/- 31.2    Q 70385.0561 +/- 38.3
From 11 observations 2024 Sept. 2 (3.2 hr); mean residual 1".30
Residuals in arcseconds: 
240902 W68  2.3-  .12-    240902 W68  .87-  .07-    240902 W68  .91-  .19-    
240902 W68  3.7+  .05+    240902 W68  .40-  .05+    240902 W68  1.1-  .04-    
240902 W68  1.7+  .29+    240902 W68  1.1-  .11-    240902 W68  2.4+  .22+    
240902 W68  .90+  .17+    240902 W68  2.0-  .25-    

Ephemerides (geocentric):
Date (UTC) HH   RA             Dec           delta  r     elong  mag " sig PA
---- --------  ------------   ------------  ------ ------ -----  --- --------
2024 09 11 01  16 31 10.598   -01 57 44.85   21903 1.0067  78.6 12.6 76.3  99
2024 09 11 02  19 33 05.488   -06 33 43.08   24672 1.0068 124.1 11.1  234  96
2024 09 11 03  21 41 45.423   -07 31 14.96   30508 1.0069 155.9 10.7  273  91
2024 09 11 04  23 06 43.557   -06 53 22.22   37006 1.0069 176.3 Sha   261  89
2024 09 11 05  00 06 24.168   -05 52 43.98   43187 1.0070 167.9 11.1  240  87
2024 09 11 06  00 51 31.004   -04 50 44.50   48757 1.0070 156.8 11.7  219  86
2024 09 11 07  01 27 43.887   -03 52 36.26   53648 1.0070 147.8 12.2  201  85
2024 09 11 08  01 58 11.171   -02 59 03.85   57863 1.0069 140.2 12.5  185  84
2024 09 11 09  02 24 44.873   -02 09 41.07   61426 1.0069 133.5 12.9  170  83
2024 09 11 10  02 48 36.299   -01 23 46.95   64364 1.0069 127.6 13.1  157  83
2024 09 11 11  03 10 33.794   -00 40 41.51   66703 1.0068 122.1 13.4  145  83
2024 09 11 12  03 31 12.180   +00 00 10.36   68462 1.0068 116.9 13.6  133  82
2024 09 11 13  03 50 58.132   +00 39 18.74   69656 1.0068 112.0 13.8  122  82
2024 09 11 14  04 10 13.474   +01 17 09.34   70296 1.0067 107.2 13.9  112  82
2024 09 11 15  04 29 17.386   +01 54 04.41   70387 1.0067 102.4 14.1  102  81
2024 09 11 16  04 48 28.082   +02 30 23.45   69931 1.0066  97.6 14.3 91.3  81
2024 09 11 17  05 08 04.295   +03 06 23.64   68922 1.0066  92.7 14.4 80.8  80
2024 09 11 18  05 28 26.852   +03 42 19.86   67353 1.0065  87.6 14.6 70.2  80
2024 09 11 19  05 50 00.669   +04 18 24.08   65210 1.0065  82.3 14.7 59.1  79
2024 09 11 20  06 13 17.600   +04 54 43.39   62474 1.0064  76.5 14.9 47.4  77
2024 09 11 21  06 39 00.965   +05 31 15.25   59122 1.0064  70.1 15.2 35.1  74
2024 09 11 22  07 08 13.266   +06 07 36.45   55128 1.0063  62.9 15.5 22.2  67
2024 09 11 23  07 42 30.321   +06 42 36.65   50465 1.0063  54.4 16?? 10.1  37
2024 09 12 00  08 24 28.811   +07 13 11.13   45120 1.0062  44.0 16?? 11.7 132
2024 09 12 01  09 18 43.104   +07 31 18.60   39128 1.0062  30.6 18?? 23.2 111
2024 09 12 02  10 33 43.052   +07 15 23.73   32676 1.0062  12.2 24?? 25.6 110
2024 09 12 03  12 24 57.904   +05 28 55.65   26435 1.0063  15.9 22?? 15.6  73
2024 09 12 04  15 09 48.399   +00 42 05.91   22295 1.0063  57.1 14??  160  97
2024 09 12 05  18 22 23.265   -05 08 21.43   22959 1.0064 105.4 11.6  337  97
2024 09 12 06  20 54 34.239   -07 26 31.95   27886 1.0065 143.2 10.9  371  92
2024 09 12 07  22 35 13.229   -07 14 48.07   34293 1.0066 167.9 10.6  337  89
2024 09 12 08  23 43 45.627   -06 19 11.22   40666 1.0066 174.2 Sha   298  87
2024 09 12 09  00 34 04.014   -05 16 31.76   46507 1.0067 162.1 11.4  265  86
2024 09 12 10  01 13 31.211   -04 16 28.02   51683 1.0067 152.3 12.0  239  85
2024 09 12 11  01 46 06.330   -03 20 56.90   56178 1.0066 144.2 12.4  217  84
2024 09 12 12  02 14 07.418   -02 29 50.51   60010 1.0066 137.2 12.7  199  84
2024 09 12 13  02 38 59.943   -01 42 30.74   63207 1.0066 131.0 13.0  183  83
2024 09 12 14  03 01 40.372   -00 58 16.24   65793 1.0066 125.3 13.2  169  83
2024 09 12 15  03 22 48.363   -00 16 29.63   67792 1.0065 120.1 13.5  156  82
2024 09 12 16  03 42 53.516   +00 23 21.25   69221 1.0065 115.0 13.7  144  82
2024 09 12 17  04 02 19.371   +01 01 43.88   70091 1.0064 110.2 13.8  133  82
2024 09 12 18  04 21 25.995   +01 39 01.89   70411 1.0064 105.4 14.0  122  82
2024 09 12 19  04 40 31.827   +02 15 35.90   70184 1.0063 100.6 14.2  112  81
2024 09 12 20  04 59 55.206   +02 51 44.01   69406 1.0063  95.8 14.3  102  81
2024 09 12 21  05 19 55.883   +03 27 42.12   68073 1.0062  90.8 14.5 92.2  81
2024 09 12 22  05 40 56.787   +04 03 43.55   66171 1.0062  85.6 14.6 82.3  80
2024 09 12 23  06 03 26.453   +04 39 57.77   63686 1.0061  80.0 14.8 72.4  80
2024 09 13 00  06 28 02.714   +05 16 27.05   60594 1.0061  73.9 15.0 62.4  79